Location: Kellogg
(38.0159°N, 90.0546°W)
Time: 22:32:00
(UTC+00:00)

Vanguard 2 - Pass Details

Date: 23 September 2024
Orbit: 552 x 2910 km, 32.9° (Epoch: 09 October)

Event Time Altitude Azimuth Distance (km) Brightness Sun altitude
Rises 08:24:04 0° 255° (WSW) 2,711 - -38.7°
Reaches altitude 10° 08:26:14 10° 248° (WSW) 1,832 - -38.4°
Maximum altitude 08:30:02 44° 175° (S) 853 - -37.8°
Exits shadow 08:34:08 13° 106° (ESE) 2,033 10.0 -37.1°
Drops below altitude 10° 08:34:50 10° 104° (ESE) 2,305 10.4 -37.0°
Sets 08:37:52 0° 98° (E) 3,521 11.5 -36.5°
